Wind_Speed
8 9 9 8 8 7 7 7 7 7 7 6 6 6 6 6 6 6 7 9 10 12 14 16 17 19 21 23 25 26 28 30 31 33 34 35 36 37 38 39 40 40 41 41 41 42 42 43 45
13 12 12 11 11 10 10 10 10 9 9 8 7 6 6 6 7 8 9 11 13 15 17 19 21 23 25 27 29 31 32 34 35 37 38 40 41 42 43 44 44 45 46 46 46 46 46 46 46
15 15 14 13 13 12 12 11 11 9 8 6 6 5 6 8 10 12 14 16 18 20 22 24 25 27 29 31 33 34 36 38 40 41 42 44 45 46 47 48 49 49 50 51 51 51 52 51 51
17 17 16 15 14 13 12 11 9 7 6 6 7 8 9 12 14 16 18 20 22 24 25 27 29 31 32 34 36 38 40 42 44 46 47 48 50 51 52 53 53 54 55 55 55 56 56 56 56
18 18 17 15 14 12 10 8 7 6 7 8 10 12 13 16 18 20 22 24 25 27 29 30 32 34 36 37 40 42 44 46 48 50 52 53 55 56 57 58 59 60 60 60 60 60 60 60 60
18 16 15 13 11 9 8 7 7 9 10 12 14 16 17 19 21 23 25 27 28 30 32 33 35 37 39 41 43 46 48 50 53 55 57 59 61 62 64 65 66 67 67 67 67 66 66 65 65
15 14 12 10 8 8 8 8 10 12 14 16 18 19 21 22 24 26 27 29 30 32 34 36 38 41 43 45 48 50 52 55 57 60 62 64 67 69 71 72 73 74 75 75 74 74 73 72 71
12 10 8 7 7 8 9 11 13 15 17 19 20 21 23 24 26 27 29 30 32 34 36 39 41 43 46 48 51 54 56 59 62 64 67 70 72 75 77 79 80 81 82 82 81 81 80 79 78
8 7 7 7 9 10 12 14 16 18 19 21 22 23 24 26 27 28 30 32 34 36 39 41 43 46 48 51 54 57 60 63 66 69 72 75 77 80 82 84 85 86 87 87 87 87 86 85 84
6 6 8 9 11 13 15 17 19 20 22 22 23 24 25 26 28 30 31 34 36 38 41 43 46 48 51 53 57 60 64 67 71 74 77 80 83 85 86 87 89 90 91 92 92 92 92 91 90
7 8 11 13 15 17 18 20 21 22 23 24 24 25 26 27 29 31 33 35 38 40 43 45 48 50 53 57 60 64 68 71 75 79 82 85 87 88 90 91 93 94 94 94 95 95 95 95 95
9 12 14 16 18 20 21 23 23 24 24 25 25 26 27 29 30 32 34 37 40 42 45 47 50 53 56 60 64 68 72 76 80 83 86 89 91 92 93 94 94 94 92 91 91 91 91 93 94
13 16 18 20 21 22 23 24 24 24 25 26 26 27 28 30 31 34 36 39 42 44 46 49 52 56 59 64 68 72 76 80 84 87 90 92 93 94 94 91 89 87 85 84 83 83 83 84 86
17 19 20 21 22 23 23 24 24 25 26 26 27 28 29 31 33 36 38 41 43 45 48 51 55 58 63 67 71 75 79 83 87 89 91 92 92 90 87 83 81 78 77 76 76 76 76 77 78
19 20 21 21 22 22 23 23 24 26 27 27 28 29 30 32 35 37 40 42 44 47 50 53 57 61 66 70 75 78 82 85 88 90 90 89 86 82 79 76 74 73 71 71 70 69 69 70 71
20 20 21 21 21 22 23 23 25 26 27 28 28 30 32 34 36 38 41 43 45 48 52 56 60 65 69 73 77 81 84 87 89 89 87 84 79 75 73 72 70 69 68 66 65 64 64 64 64
19 20 20 21 21 22 23 24 25 26 27 28 29 31 33 35 37 39 41 43 46 50 54 58 63 67 71 75 80 83 85 88 88 86 82 78 74 71 70 69 68 67 65 64 63 62 61 60 60
18 19 19 21 21 22 23 25 25 26 27 27 29 31 33 35 37 40 42 44 48 52 56 61 65 69 73 77 81 83 86 87 85 82 77 73 71 69 68 67 66 66 64 63 62 61 60 59 58
17 18 19 20 21 21 22 24 25 25 26 27 29 31 34 36 38 40 43 46 50 54 59 63 67 71 74 78 81 83 85 85 82 78 73 70 69 68 67 66 66 65 64 63 62 61 60 59 58
16 17 18 19 20 21 21 22 24 24 25 27 29 32 34 37 39 42 45 48 52 56 60 64 68 72 75 78 81 83 85 83 78 74 70 69 68 67 66 66 65 64 64 64 64 63 61 59 59
15 17 18 19 19 20 21 21 23 24 25 27 30 32 35 38 40 43 46 50 54 58 62 66 69 72 76 79 81 83 83 80 75 71 68 67 67 66 66 66 65 66 66 65 63 61 59 57 57
14 16 18 19 20 21 22 22 24 25 26 28 31 33 36 39 42 45 48 51 56 60 63 67 70 73 76 78 80 81 80 76 72 68 67 67 66 66 66 66 66 67 67 65 62 59 55 52 51
14 16 18 19 20 22 23 23 25 26 28 30 32 35 38 40 43 46 49 53 57 60 64 67 70 73 76 78 80 80 78 74 70 67 66 66 66 65 66 66 67 68 67 63 58 54 50 47 45
14 16 18 19 21 22 25 25 27 28 29 32 34 36 39 42 45 47 50 54 58 61 65 68 71 73 76 77 79 78 76 72 68 66 65 65 65 65 65 66 67 68 65 59 54 50 45 41 39
14 17 19 22 23 24 26 27 28 30 31 33 36 38 41 43 45 48 51 55 58 62 65 68 71 73 75 76 77 76 73 70 66 65 65 65 65 65 65 66 67 66 62 56 51 46 41 35 31
15 18 21 24 25 25 27 29 30 32 33 36 38 40 42 44 47 49 52 56 59 62 65 68 71 73 74 75 76 75 72 68 65 64 64 65 65 64 65 66 67 65 60 54 48 43 38 32 26
15 18 21 23 25 27 30 32 34 36 37 38 40 42 43 46 48 50 53 56 59 63 65 68 71 72 74 75 75 73 70 67 64 64 64 65 65 64 65 66 66 64 58 52 46 41 36 29 22
15 18 22 26 29 31 32 35 37 39 40 41 42 44 45 47 49 51 54 57 60 63 65 68 70 72 73 74 73 72 69 66 64 63 63 64 64 64 65 65 65 63 56 50 45 39 34 27 19
15 18 22 25 28 32 34 36 38 40 42 44 45 47 48 49 51 53 55 58 60 63 65 68 70 71 72 73 72 70 68 65 63 62 63 63 63 64 64 65 65 62 56 49 44 38 32 26 18
15 18 21 24 27 30 32 36 39 41 44 46 48 49 51 52 53 55 56 58 61 63 65 68 70 71 72 72 71 69 67 64 62 62 62 62 63 63 63 64 64 62 57 50 43 37 31 24 17
Wind_Direction
90 92 91 88 88 88 88 85 82 79 76 68 61 52 43 32 18 5 355 344 335 328 323 318 315 312 309 306 304 301 299 297 295 293 291 289 287 284 282 280 279 277 275 274 272 270 266 263 260
93 93 92 91 91 91 89 86 86 84 82 76 67 55 36 16 0 346 337 330 325 320 317 314 312 309 307 305 303 301 299 297 295 293 291 289 287 285 283 280 278 276 274 272 271 269 268 266 263
95 94 94 93 93 93 92 88 85 84 78 67 50 29 5 351 341 333 328 324 320 317 314 313 311 309 307 305 303 301 300 298 296 294 292 290 288 286 284 282 279 277 275 273 270 268 267 265 263
96 96 96 95 96 93 91 86 80 72 55 34 13 357 345 338 332 328 324 321 318 316 314 313 311 308 307 305 304 302 301 299 298 296 294 292 290 288 286 283 281 279 276 274 271 269 266 264 262
96 96 97 96 94 91 84 74 59 39 18 2 351 342 336 331 327 324 322 319 317 316 314 312 310 308 307 306 305 304 302 301 300 298 297 295 293 291 288 286 283 281 278 275 272 270 267 264 262
97 94 94 92 87 78 66 48 25 7 355 346 339 334 330 326 323 321 320 318 317 315 314 312 311 310 309 308 307 306 305 304 303 301 300 298 295 293 291 288 286 283 280 278 275 272 268 265 262
93 90 87 79 69 54 36 15 1 351 343 337 332 328 325 322 321 319 318 318 317 315 314 314 313 313 312 311 310 309 308 307 305 303 301 299 297 294 292 290 287 285 282 279 276 273 270 267 264
88 82 72 57 38 21 6 355 346 340 335 330 328 325 322 321 319 319 318 318 317 316 316 315 315 314 313 312 311 310 309 307 305 303 301 299 297 295 292 290 288 285 283 280 277 274 271 268 265
74 60 39 20 6 355 347 340 335 332 328 325 324 322 321 320 319 319 319 318 317 317 317 316 315 315 314 313 312 310 309 307 305 303 301 299 297 295 293 290 288 286 283 280 277 274 271 268 265
43 22 3 352 344 339 335 331 328 325 323 323 322 322 321 321 320 320 320 319 319 318 318 317 317 316 315 313 312 310 309 307 306 304 302 300 298 295 293 291 289 286 284 281 278 275 272 269 265
3 350 342 336 332 330 327 325 323 322 322 322 322 322 322 322 322 321 320 320 320 319 319 319 318 317 315 314 313 311 310 308 307 305 303 301 299 297 294 292 290 289 287 284 281 278 275 271 267
337 333 330 327 325 324 322 321 321 322 322 323 324 324 324 324 323 323 322 321 321 320 320 319 318 317 316 315 313 312 311 310 308 306 304 303 301 299 297 295 294 292 289 286 283 280 277 273 269
326 324 323 322 322 321 321 321 322 323 324 325 326 326 325 325 325 324 323 322 321 321 320 319 318 317 316 315 315 314 313 311 309 308 306 305 303 302 300 299 297 294 291 287 284 280 276 273 269
321 321 321 321 322 323 323 323 324 325 326 327 327 327 327 326 325 324 323 323 322 322 321 320 319 318 317 317 316 315 314 312 311 310 309 307 306 305 303 301 299 296 293 290 286 283 278 274 269
321 322 323 324 325 326 326 326 326 326 327 328 328 328 328 327 326 325 324 323 323 322 321 320 320 320 319 319 318 317 315 314 313 312 311 310 309 308 306 304 302 299 297 294 290 286 282 277 272
325 327 327 329 330 330 329 327 327 327 327 328 328 328 328 327 326 325 324 323 322 322 321 321 322 322 321 321 319 318 317 316 315 314 314 313 313 311 310 308 306 303 300 297 293 288 284 279 274
330 331 332 333 333 332 330 327 328 328 328 329 329 328 327 326 325 324 323 323 323 323 323 324 324 324 323 322 321 320 319 318 318 317 317 317 316 315 314 312 309 307 303 299 295 290 285 280 274
335 336 336 335 335 333 330 327 329 329 329 329 328 328 326 326 325 324 324 324 325 325 326 326 326 325 324 323 322 322 321 321 321 321 321 320 319 318 317 315 312 309 306 302 297 292 286 280 274
340 341 340 338 338 336 332 329 330 331 331 330 329 327 326 326 325 326 326 326 327 327 327 327 327 326 325 324 324 324 323 323 323 323 323 323 322 321 319 317 315 312 309 304 299 293 287 280 274
346 346 346 345 342 340 337 332 333 334 333 331 329 328 327 327 327 328 328 329 329 329 328 328 328 327 327 326 326 325 325 325 325 326 325 325 324 323 322 320 317 315 311 307 302 295 288 280 273
354 354 352 350 349 346 344 339 337 338 336 333 331 330 328 328 329 330 330 330 330 330 330 330 329 329 328 327 327 327 327 328 328 328 328 328 327 326 324 323 320 318 315 311 306 299 291 282 273
4 2 360 357 354 351 349 346 343 341 339 335 333 332 330 330 331 331 331 331 331 331 331 331 330 330 329 329 329 329 330 330 331 331 331 330 330 328 327 326 324 323 320 316 311 305 297 287 275
14 11 8 5 0 355 353 350 347 345 341 338 336 334 333 332 332 332 332 333 333 333 333 333 332 331 331 331 331 332 332 333 333 333 333 333 332 331 331 330 329 328 325 322 317 312 303 292 279
22 19 15 12 8 1 358 355 352 349 344 341 339 337 335 334 334 333 334 334 334 334 334 334 334 333 333 333 334 334 335 335 335 336 336 336 336 335 335 334 334 333 331 328 325 320 313 302 285
22 21 19 18 13 7 2 359 356 352 348 344 342 340 338 336 335 335 335 335 335 336 336 336 335 335 335 335 336 336 337 337 337 338 339 339 340 340 339 339 339 339 337 335 333 330 325 314 296
20 19 19 18 16 11 7 4 360 356 352 349 345 342 340 338 337 337 337 337 337 337 337 337 337 337 337 337 338 338 339 339 340 340 341 342 343 344 344 344 344 344 343 341 340 338 335 329 314
19 18 16 15 15 13 10 8 4 1 357 352 348 345 342 340 339 339 339 339 338 339 339 339 339 339 339 339 340 340 341 341 342 343 344 345 346 347 348 349 349 349 348 347 346 345 344 340 330
14 14 13 11 12 13 10 9 6 3 359 355 352 348 345 343 342 341 340 340 340 340 340 340 340 340 341 341 342 342 343 343 344 345 347 348 349 350 351 352 353 353 352 351 351 350 351 349 343
7 9 10 9 8 8 8 6 5 3 0 358 355 352 349 346 344 343 342 342 342 342 342 342 342 342 343 343 344 344 345 345 346 348 349 350 351 352 354 355 356 356 356 356 356 355 356 356 354
355 0 3 5 6 5 4 2 2 2 0 359 357 354 352 349 347 345 344 344 343 343 343 343 343 344 345 345 346 346 346 347 348 349 351 352 353 355 356 357 359 360 360 360 360 359 0 0 0
Height
5885 5886 5886 5888 5889 5889 5888 5888 5888 5888 5887 5887 5887 5886 5885 5885 5884 5885 5882 5878 5877 5875 5873 5871 5869 5867 5865 5862 5860 5858 5855 5853 5850 5848 5845 5843 5841 5839 5837 5835 5833 5832 5830 5829 5828 5827 5826 5826 5826
5887 5887 5889 5889 5889 5890 5890 5889 5889 5888 5888 5888 5887 5886 5885 5884 5883 5881 5879 5877 5875 5873 5870 5868 5866 5863 5861 5858 5855 5852 5849 5847 5844 5841 5838 5836 5833 5831 5829 5826 5825 5823 5821 5820 5819 5818 5817 5817 5817
5889 5889 5891 5891 5891 5891 5891 5890 5890 5889 5889 5888 5887 5886 5885 5883 5881 5879 5877 5874 5872 5870 5867 5864 5862 5859 5856 5853 5849 5846 5843 5840 5836 5833 5830 5827 5824 5821 5818 5816 5814 5812 5810 5809 5808 5807 5807 5806 5806
5891 5892 5893 5893 5892 5892 5892 5891 5891 5890 5889 5888 5887 5885 5883 5882 5879 5877 5874 5871 5869 5866 5863 5860 5857 5854 5850 5847 5843 5839 5836 5832 5828 5824 5820 5817 5813 5810 5807 5804 5802 5799 5798 5796 5795 5794 5794 5794 5794
5893 5894 5894 5894 5893 5893 5893 5892 5891 5890 5889 5887 5886 5884 5881 5879 5877 5874 5871 5868 5865 5862 5858 5855 5851 5848 5844 5840 5836 5832 5827 5823 5818 5814 5809 5805 5800 5797 5793 5790 5787 5785 5783 5781 5780 5779 5779 5779 5780
5896 5896 5896 5895 5895 5894 5894 5892 5891 5890 5888 5886 5884 5882 5879 5877 5874 5871 5867 5864 5860 5857 5853 5849 5845 5841 5837 5833 5828 5823 5818 5813 5807 5802 5797 5791 5786 5782 5777 5774 5770 5767 5765 5763 5762 5762 5762 5762 5763
5898 5898 5897 5897 5896 5895 5894 5892 5891 5889 5887 5884 5882 5880 5877 5874 5870 5867 5863 5860 5856 5852 5848 5843 5839 5834 5829 5824 5819 5813 5807 5801 5795 5789 5783 5777 5771 5765 5760 5755 5751 5748 5745 5743 5741 5741 5741 5742 5743
5899 5900 5898 5897 5896 5895 5893 5891 5889 5887 5885 5882 5880 5877 5874 5871 5867 5863 5859 5855 5851 5846 5842 5837 5832 5827 5821 5815 5809 5803 5796 5790 5783 5776 5769 5762 5755 5748 5741 5735 5730 5725 5722 5719 5717 5717 5717 5718 5720
5900 5901 5898 5897 5896 5894 5892 5890 5888 5885 5883 5880 5877 5874 5870 5867 5863 5859 5854 5850 5845 5841 5836 5830 5825 5819 5813 5806 5799 5793 5785 5778 5770 5762 5754 5746 5737 5729 5721 5713 5706 5701 5696 5693 5690 5689 5690 5692 5694
5901 5900 5899 5897 5895 5893 5891 5889 5886 5883 5880 5877 5873 5870 5866 5862 5858 5854 5850 5845 5840 5834 5829 5823 5817 5810 5804 5797 5790 5782 5774 5765 5756 5747 5737 5727 5717 5708 5699 5690 5682 5675 5669 5664 5661 5660 5660 5661 5664
5901 5899 5898 5896 5893 5891 5888 5886 5883 5879 5876 5873 5870 5866 5862 5858 5854 5849 5844 5839 5833 5828 5822 5815 5809 5802 5795 5787 5779 5770 5761 5751 5741 5730 5718 5707 5696 5685 5674 5665 5656 5648 5641 5635 5631 5628 5627 5628 5631
5900 5898 5896 5894 5891 5888 5885 5882 5879 5876 5873 5869 5865 5862 5858 5854 5849 5844 5838 5833 5827 5821 5814 5807 5800 5793 5785 5777 5767 5757 5746 5735 5723 5711 5698 5685 5672 5660 5648 5637 5627 5618 5611 5605 5600 5597 5595 5594 5596
5899 5897 5894 5891 5888 5885 5882 5878 5875 5872 5868 5864 5861 5857 5853 5849 5844 5838 5832 5826 5820 5814 5807 5800 5792 5784 5775 5765 5755 5743 5731 5718 5704 5690 5676 5662 5648 5635 5621 5610 5600 5591 5583 5576 5571 5567 5564 5563 5564
5897 5894 5892 5888 5885 5882 5878 5874 5871 5867 5864 5860 5857 5853 5848 5844 5838 5832 5826 5820 5813 5806 5799 5791 5783 5774 5764 5753 5741 5728 5715 5700 5685 5670 5654 5639 5624 5610 5598 5586 5576 5567 5558 5550 5544 5539 5536 5534 5534
5894 5892 5889 5885 5882 5878 5875 5871 5867 5863 5860 5856 5852 5848 5843 5838 5833 5827 5820 5813 5806 5799 5791 5783 5773 5763 5752 5739 5726 5712 5698 5682 5666 5649 5633 5617 5602 5589 5577 5565 5554 5544 5535 5527 5520 5514 5510 5507 5506
5892 5889 5886 5883 5879 5875 5873 5869 5865 5860 5856 5852 5848 5843 5838 5833 5827 5821 5814 5807 5800 5792 5783 5774 5763 5751 5739 5725 5711 5696 5680 5663 5646 5629 5612 5597 5583 5570 5557 5546 5534 5524 5514 5506 5498 5492 5487 5484 5481
5889 5886 5883 5880 5876 5872 5869 5865 5861 5857 5853 5849 5844 5839 5834 5828 5822 5816 5809 5801 5793 5784 5775 5764 5752 5739 5726 5711 5695 5679 5662 5644 5626 5609 5593 5579 5565 5552 5539 5527 5516 5505 5495 5486 5478 5471 5466 5462 5460
5887 5884 5880 5877 5873 5870 5866 5861 5858 5853 5849 5845 5840 5835 5829 5823 5817 5810 5803 5795 5786 5776 5766 5754 5742 5728 5713 5698 5681 5663 5645 5626 5608 5591 5576 5562 5549 5536 5523 5510 5499 5487 5477 5467 5458 5450 5444 5440 5438
5885 5882 5878 5875 5871 5867 5863 5859 5854 5850 5846 5841 5836 5831 5825 5819 5812 5804 5796 5787 5778 5768 5756 5744 5731 5717 5702 5686 5668 5650 5631 5612 5594 5577 5562 5548 5535 5521 5508 5495 5483 5470 5459 5447 5437 5429 5423 5418 5414
5883 5880 5876 5873 5868 5865 5861 5856 5852 5847 5843 5838 5833 5827 5820 5813 5806 5798 5789 5780 5770 5759 5747 5735 5721 5707 5691 5674 5656 5638 5619 5600 5582 5565 5550 5535 5521 5507 5494 5480 5466 5453 5441 5428 5416 5405 5398 5394 5391
5881 5878 5875 5871 5867 5863 5859 5854 5849 5845 5840 5834 5828 5822 5815 5808 5800 5791 5782 5772 5762 5751 5738 5726 5711 5696 5679 5662 5644 5625 5606 5587 5570 5554 5539 5524 5509 5494 5480 5465 5451 5436 5421 5407 5394 5382 5373 5368 5366
5880 5877 5873 5869 5864 5860 5857 5852 5847 5842 5836 5830 5824 5817 5810 5802 5793 5785 5775 5765 5754 5742 5730 5716 5701 5685 5668 5651 5632 5613 5595 5577 5560 5544 5528 5513 5497 5482 5467 5451 5435 5419 5402 5386 5372 5359 5349 5343 5341
5879 5875 5871 5867 5862 5858 5854 5849 5845 5839 5832 5826 5820 5812 5804 5796 5787 5778 5768 5758 5747 5734 5721 5707 5691 5675 5657 5640 5621 5602 5584 5566 5550 5534 5519 5503 5487 5471 5455 5438 5421 5403 5385 5368 5353 5340 5329 5321 5318
5878 5875 5871 5866 5862 5857 5851 5846 5842 5835 5829 5822 5815 5807 5799 5790 5781 5772 5762 5751 5739 5726 5712 5697 5681 5665 5647 5629 5611 5592 5574 5557 5541 5525 5510 5494 5478 5461 5444 5426 5408 5389 5370 5353 5338 5324 5313 5304 5300
5877 5874 5870 5865 5860 5855 5849 5843 5839 5832 5825 5818 5810 5802 5793 5785 5775 5766 5755 5744 5731 5718 5704 5688 5672 5655 5638 5620 5602 5583 5566 5549 5533 5518 5502 5486 5469 5452 5435 5416 5397 5378 5359 5341 5326 5313 5302 5292 5286
5875 5872 5868 5863 5858 5854 5847 5841 5837 5829 5822 5814 5806 5798 5789 5779 5770 5759 5748 5736 5724 5710 5696 5680 5664 5647 5630 5612 5594 5576 5558 5542 5526 5510 5494 5478 5461 5444 5426 5407 5388 5369 5350 5334 5319 5306 5295 5285 5278
5873 5869 5866 5862 5856 5851 5845 5839 5832 5825 5817 5810 5802 5793 5784 5774 5764 5753 5742 5730 5717 5703 5688 5673 5656 5639 5622 5604 5586 5569 5551 5535 5519 5503 5487 5471 5454 5437 5419 5401 5382 5363 5345 5329 5315 5302 5291 5282 5275
5872 5867 5863 5857 5852 5847 5842 5835 5829 5821 5814 5806 5798 5789 5779 5769 5758 5747 5735 5723 5710 5696 5681 5666 5650 5633 5616 5598 5580 5563 5545 5529 5513 5498 5482 5465 5449 5432 5414 5396 5378 5360 5343 5327 5313 5301 5290 5281 5275
5870 5865 5860 5855 5849 5844 5838 5835 5827 5819 5811 5803 5794 5784 5774 5763 5752 5741 5729 5717 5703 5689 5675 5659 5643 5627 5609 5592 5574 5557 5540 5524 5509 5493 5477 5461 5445 5428 5411 5394 5376 5358 5341 5326 5313 5301 5291 5283 5277
5867 5863 5858 5855 5849 5842 5837 5833 5823 5815 5807 5799 5790 5780 5769 5758 5747 5735 5723 5711 5697 5683 5669 5653 5637 5621 5604 5586 5569 5552 5536 5520 5505 5489 5474 5458 5442 5425 5409 5392 5375 5357 5341 5327 5314 5303 5293 5286 5280